GW5963 Weather Reports


time (UTC)temp
C
wind
direction
speed
KPH
gust
KPH
rain 1hr
cm
rain 24hr
cm
rain mn
cm
humidity
%
barometer
mb
20260502130516 19 133 1.6 6.4 0.00 0.05 0.05 78 1016.7
20260502123517 20 52 1.6 8.0 0.00 0.05 0.05 80 1016.6
20260502123027 20 96 1.6 8.0 0.00 0.05 0.05 80 1016.7
20260502122517 20 72 1.6 8.0 0.05 0.05 0.05 81 1016.7
20260502122017 20 103 1.6 8.0 0.05 0.05 0.05 81 1016.7
20260502121517 19 92 0.0 8.0 0.05 0.05 0.05 82 1016.8
20260502121016 20 119 1.6 8.0 0.05 0.05 0.05 81 1016.7
20260502120516 20 60 1.6 8.0 0.05 0.05 0.05 81 1016.8
20260502115516 20 63 1.6 9.7 0.05 0.05 0.05 82 1016.7
20260502115016 20 233 3.2 9.7 0.05 0.05 0.05 84 1016.9
20260502114517 20 293 1.6 6.4 0.05 0.05 0.05 84 1016.9
20260502114017 20 233 0.0 8.0 0.05 0.05 0.05 84 1017.0
20260502113517 20 307 3.2 9.7 0.05 0.05 0.05 81 1017.1
20260502113027 20 148 3.2 11.3 0.03 0.05 0.05 77 1017.2
20260502112517 20 272 4.8 11.3 0.00 0.03 0.03 74 1017.3
20260502112018 20 237 1.6 11.3 0.00 0.03 0.03 73 1017.3
20260502111529 21 229 4.8 11.3 0.00 0.03 0.03 71 1017.3
20260502111017 21 267 4.8 11.3 0.00 0.03 0.03 69 1017.1
20260502110517 21 271 4.8 11.3 0.00 0.03 0.03 70 1017.3
20260502110028 21 311 6.4 11.3 0.00 0.03 0.03 69 1017.2
20260502105518 21 265 1.6 11.3 0.00 0.03 0.03 76 1017.2
20260502105018 21 266 3.2 11.3 0.00 0.03 0.03 75 1017.2
20260502104517 20 270 3.2 6.4 0.00 0.03 0.03 79 1017.2
20260502104016 20 284 1.6 6.4 0.00 0.03 0.03 83 1017.4
20260502103528 19 229 1.6 1.6 0.00 0.03 0.03 88 1017.2
20260502103017 18 102 0.0 0.0 0.00 0.03 0.03 88 1017.2
20260502102517 17 108 0.0 0.0 0.00 0.03 0.03 89 1017.2
20260502102016 17 301 0.0 0.0 0.03 0.03 0.03 90 1017.2
20260502101517 17 259 0.0 0.0 0.03 0.03 0.03 90 1017.1
20260502101017 17 102 0.0 1.6 0.03 0.03 0.03 90 1017.0
20260502100517 16 97 0.0 1.6 0.03 0.03 0.03 90 1016.9
20260502091517 16 96 0.0 3.2 0.00 0.00 0.00 88 1016.9
20260502091028 16 96 0.0 3.2 0.00 0.00 0.00 88 1016.9
20260502090516 15 98 0.0 3.2 0.00 0.00 0.00 89 1017.1
20260502071517 14 10 0.0 1.6 0.00 0.00 0.00 85 1016.9
20260502071017 14 101 0.0 0.0 0.00 0.00 0.00 86 1017.0
20260502070516 13 101 0.0 1.6 0.00 0.00 0.00 86 1017.0
20260502070016 13 101 0.0 1.6 0.00 0.00 0.00 86 1017.0
20260502065516 13 101 0.0 0.0 0.00 0.00 0.00 87 1017.0
20260502065016 13 101 0.0 0.0 0.00 0.00 0.00 87 1016.9
20260502064516 13 108 0.0 0.0 0.00 0.00 0.00 87 1017.0
20260502064027 13 108 0.0 0.0 0.00 0.00 0.00 88 1017.0
20260502063514 12 108 0.0 0.0 0.00 0.00 0.00 88 1017.1
20260502063017 12 108 0.0 0.0 0.00 0.00 0.00 89 1017.1
20260502062517 12 108 0.0 0.0 0.00 0.00 0.00 88 1017.1
20260502062016 12 108 0.0 0.0 0.00 0.00 0.00 89 1017.2
20260502061518 12 108 0.0 0.0 0.00 0.00 0.00 89 1017.1
20260502061016 12 108 0.0 0.0 0.00 0.00 0.00 89 1017.1
20260502060517 12 111 0.0 0.0 0.00 0.00 0.00 89 1017.1
20260502060029 12 131 0.0 0.0 0.00 0.00 0.00 89 1017.1
20260502055527 12 131 0.0 0.0 0.00 0.00 0.00 90 1017.1
20260502055017 12 131 0.0 0.0 0.00 0.00 0.00 90 1017.1
20260502054516 12 131 0.0 0.0 0.00 0.00 0.00 90 1017.1
20260502054017 12 131 0.0 0.0 0.00 0.00 0.00 89 1017.1
20260502053516 12 131 0.0 0.0 0.00 0.00 0.00 89 1017.1
20260502053016 12 131 0.0 0.0 0.00 0.00 0.00 89 1017.2
20260502052527 12 131 0.0 0.0 0.00 0.00 0.00 89 1017.2
20260502052017 12 131 0.0 0.0 0.00 0.00 0.00 89 1017.1
20260502051517 12 131 0.0 0.0 0.00 0.00 0.00 89 1017.1
20260502051028 12 131 0.0 0.0 0.00 0.00 0.00 90 1017.0
20260502050528 12 131 0.0 0.0 0.00 0.00 0.00 89 1017.0
20260502050020 12 131 0.0 0.0 0.00 0.00 0.00 89 1017.0
20260502045517 12 131 0.0 0.0 0.00 0.00 0.00 90 1017.0
20260502045017 12 131 0.0 0.0 0.00 0.00 0.00 90 1017.1
20260502044528 12 131 0.0 0.0 0.00 0.00 0.00 90 1017.1
20260502044017 12 131 0.0 0.0 0.00 0.00 0.00 90 1017.0
20260502043517 12 131 0.0 0.0 0.00 0.00 0.00 90 1017.0
20260502043017 12 131 0.0 0.0 0.00 0.00 0.00 90 1016.9
20260502042517 12 131 0.0 0.0 0.00 0.00 0.00 90 1017.0
20260502042028 12 131 0.0 0.0 0.00 0.00 0.00 90 1016.9
20260502041528 12 131 0.0 0.0 0.00 0.00 0.00 90 1016.9
20260502041017 12 131 0.0 0.0 0.00 0.00 0.00 90 1016.9
20260502040528 12 131 0.0 0.0 0.00 0.00 0.00 90 1016.9
20260502040017 12 131 0.0 0.0 0.00 0.00 0.00 90 1016.9
20260502035517 12 131 0.0 0.0 0.00 0.00 0.00 90 1016.9
20260502035029 12 131 0.0 0.0 0.00 0.00 0.00 90 1017.0
20260502034519 12 131 0.0 0.0 0.00 0.00 0.00 90 1017.0
20260502034017 12 131 0.0 0.0 0.00 0.00 0.00 91 1017.1
20260502033517 12 131 0.0 0.0 0.00 0.00 0.00 91 1017.0
20260502033016 12 131 0.0 0.0 0.00 0.00 0.00 91 1016.9
20260502032517 11 131 0.0 0.0 0.00 0.00 0.00 91 1017.0
20260502032028 11 131 0.0 0.0 0.00 0.00 0.00 91 1017.0
20260502031518 11 131 0.0 0.0 0.00 0.00 0.00 91 1017.0
20260502031017 11 131 0.0 0.0 0.00 0.00 0.00 91 1017.1
20260502030517 11 131 0.0 0.0 0.00 0.00 0.00 91 1017.1
20260502030017 11 131 0.0 0.0 0.00 0.00 0.00 91 1017.2
20260502025518 11 131 0.0 0.0 0.00 0.00 0.00 91 1017.1
20260502025017 11 131 0.0 0.0 0.00 0.00 0.00 91 1017.1
20260502024518 11 131 0.0 0.0 0.00 0.00 0.00 91 1017.0
20260502024017 11 131 0.0 0.0 0.00 0.00 0.00 90 1017.0
20260502023517 11 131 0.0 0.0 0.00 0.00 0.00 90 1016.9
20260502023017 11 131 0.0 0.0 0.00 0.00 0.00 89 1017.1
20260502022517 11 131 0.0 0.0 0.00 0.00 0.00 89 1017.1
20260502022017 11 131 0.0 0.0 0.00 0.00 0.00 89 1017.1
20260502021518 11 131 0.0 0.0 0.00 0.00 0.00 88 1017.2
20260502021017 11 131 0.0 0.0 0.00 0.00 0.00 88 1017.3
20260502020517 11 131 0.0 0.0 0.00 0.00 0.00 88 1017.3
20260502020029 11 131 0.0 0.0 0.00 0.00 0.00 88 1017.4
20260502015517 12 131 0.0 0.0 0.00 0.00 0.00 88 1017.4
20260502015018 12 131 0.0 0.0 0.00 0.00 0.00 88 1017.4
20260502014517 12 131 0.0 0.0 0.00 0.00 0.00 88 1017.5
20260502014029 12 131 0.0 0.0 0.00 0.00 0.00 88 1017.5
20260502013517 12 131 0.0 0.0 0.00 0.00 0.00 87 1017.5
20260502013028 12 131 0.0 0.0 0.00 0.00 0.00 87 1017.5
20260502012517 12 131 0.0 0.0 0.00 0.00 0.00 87 1017.5
20260502012017 12 131 0.0 0.0 0.00 0.00 0.00 87 1017.6
20260502011518 12 131 0.0 0.0 0.00 0.00 0.00 87 1017.6
20260502011028 12 131 0.0 0.0 0.00 0.00 0.00 87 1017.5
20260502010517 12 131 0.0 0.0 0.00 0.00 0.00 86 1017.5
20260502010016 12 131 0.0 0.0 0.00 0.00 0.00 86 1017.6
20260502005516 12 131 0.0 0.0 0.00 0.00 0.00 85 1017.7
20260502005016 13 131 0.0 0.0 0.00 0.00 0.00 84 1017.8
20260502004516 13 131 0.0 0.0 0.00 0.00 0.00 84 1017.7
20260502004016 13 131 0.0 0.0 0.00 0.00 0.00 84 1017.8
20260502003516 13 131 0.0 0.0 0.00 0.00 0.00 83 1017.8
20260502003017 13 131 0.0 0.0 0.00 0.00 0.00 82 1018.0
20260502002527 13 131 0.0 0.0 0.00 0.00 0.00 82 1018.0
20260502002017 13 131 0.0 0.0 0.00 0.00 0.00 81 1018.1
20260502001517 14 131 0.0 0.0 0.00 0.00 0.00 80 1018.1
20260502001018 15 131 0.0 0.0 0.00 0.00 0.00 80 1018.2
20260502000527 15 131 0.0 0.0 0.00 0.00 0.00 79 1018.1
20260502000017 15 106 0.0 0.0 0.00 0.00 0.00 79 1018.1
20260501235517 15 87 0.0 1.6 0.00 0.00 0.00 79 1018.2
20260501235017 15 87 0.0 1.6 0.00 0.00 0.00 78 1018.3
20260501234516 15 89 0.0 1.6 0.00 0.00 0.00 76 1018.2
20260501234016 16 89 0.0 3.2 0.00 0.00 0.00 76 1018.3
20260501233517 16 91 0.0 4.8 0.00 0.00 0.00 75 1018.4
20260501233017 16 94 0.0 4.8 0.00 0.00 0.00 75 1018.4
20260501232517 16 85 0.0 4.8 0.00 0.00 0.00 75 1018.5
20260501232018 16 107 1.6 6.4 0.00 0.00 0.00 74 1018.6
20260501231517 16 87 1.6 4.8 0.00 0.00 0.00 75 1018.7
20260501231017 16 90 3.2 6.4 0.00 0.00 0.00 75 1018.7
20260501230516 17 87 1.6 6.4 0.00 0.00 0.00 75 1018.7
20260501230021 17 86 3.2 6.4 0.00 0.00 0.00 75 1018.8
20260501225517 17 93 1.6 8.0 0.00 0.00 0.00 75 1018.9
20260501225017 17 86 3.2 8.0 0.00 0.00 0.00 76 1018.9
20260501224517 17 120 1.6 6.4 0.00 0.00 0.00 76 1018.9
20260501224017 17 80 3.2 6.4 0.00 0.00 0.00 76 1018.9
20260501223517 17 98 1.6 3.2 0.00 0.00 0.00 77 1018.9
20260501223017 17 88 1.6 8.0 0.00 0.00 0.00 77 1018.8
20260501222528 17 94 1.6 8.0 0.00 0.00 0.00 77 1018.8
20260501222017 17 82 1.6 4.8 0.00 0.00 0.00 78 1018.8
20260501221528 17 115 0.0 1.6 0.00 0.00 0.00 79 1018.9
20260501221019 17 86 0.0 1.6 0.00 0.00 0.00 79 1018.8
20260501220517 18 86 0.0 3.2 0.00 0.00 0.00 79 1018.8
20260501220016 18 94 1.6 3.2 0.00 0.00 0.00 80 1018.7
20260501215517 18 84 1.6 3.2 0.00 0.00 0.00 80 1018.7
20260501215028 18 96 0.0 6.4 0.00 0.00 0.00 80 1018.7
20260501214518 18 98 1.6 6.4 0.00 0.00 0.00 81 1018.7
20260501214017 18 94 1.6 4.8 0.00 0.00 0.00 82 1018.7
20260501213517 18 90 0.0 4.8 0.00 0.00 0.00 83 1018.7
20260501213018 18 86 1.6 3.2 0.00 0.00 0.00 83 1018.6
20260501212517 18 91 1.6 6.4 0.00 0.00 0.00 84 1018.7
20260501212017 18 83 3.2 8.0 0.00 0.00 0.00 86 1018.8
20260501211518 17 82 3.2 8.0 0.00 0.00 0.00 88 1018.8
20260501211016 17 101 1.6 4.8 0.00 0.00 0.00 90 1018.7
20260501210517 17 107 0.0 0.0 0.00 0.00 0.00 90 1018.7
20260501210017 17 107 0.0 0.0 0.00 0.00 0.00 90 1018.8
20260501205518 17 115 0.0 0.0 0.00 0.00 0.00 90 1018.9
20260501205017 16 117 0.0 0.0 0.00 0.00 0.00 89 1018.9
20260501204518 16 117 0.0 0.0 0.00 0.00 0.00 88 1019.0
20260501204016 16 117 0.0 0.0 0.00 0.00 0.00 88 1018.9
20260501203517 16 117 0.0 0.0 0.00 0.00 0.00 87 1018.8
20260501203017 16 117 0.0 0.0 0.00 0.00 0.00 87 1018.8
20260501202517 16 117 0.0 0.0 0.00 0.00 0.00 87 1018.7
20260501202018 17 117 0.0 0.0 0.00 0.00 0.00 87 1018.6
20260501201518 17 117 0.0 0.0 0.00 0.00 0.00 86 1018.5
20260501201017 17 117 0.0 0.0 0.00 0.00 0.00 86 1018.5
20260501200517 17 117 0.0 0.0 0.00 0.00 0.00 86 1018.5
20260501200017 17 117 0.0 0.0 0.00 0.00 0.00 86 1018.5
20260501195517 17 117 0.0 0.0 0.00 0.00 0.00 85 1018.4
20260501195017 17 117 0.0 0.0 0.00 0.00 0.00 85 1018.4
20260501194529 18 117 0.0 0.0 0.00 0.00 0.00 84 1018.5
20260501194017 18 117 0.0 0.0 0.00 0.00 0.00 83 1018.6
20260501193529 18 117 0.0 0.0 0.00 0.00 0.00 81 1018.5
20260501193017 18 117 0.0 0.0 0.00 0.00 0.00 81 1018.5
20260501192529 18 117 0.0 0.0 0.00 0.00 0.00 80 1018.6
20260501192017 19 117 0.0 0.0 0.00 0.00 0.00 79 1018.6
20260501191518 19 117 0.0 0.0 0.00 0.00 0.00 79 1018.5
20260501191018 20 117 0.0 0.0 0.00 0.00 0.00 78 1018.5
20260501190517 20 117 0.0 3.2 0.00 0.00 0.00 77 1018.4
20260501190028 20 117 0.0 3.2 0.00 0.00 0.00 77 1018.4
20260501185517 20 113 0.0 4.8 0.00 0.00 0.00 76 1018.3
20260501185017 21 103 1.6 4.8 0.00 0.00 0.00 76 1018.3
20260501184518 21 112 3.2 8.0 0.00 0.00 0.00 75 1018.3
20260501184028 21 84 1.6 8.0 0.00 0.00 0.00 75 1018.3
20260501183529 21 94 3.2 9.7 0.00 0.00 0.00 74 1018.3
20260501183018 21 97 3.2 9.7 0.00 0.00 0.00 74 1018.3
20260501182518 21 108 1.6 4.8 0.00 0.00 0.00 74 1018.3
20260501182017 21 123 1.6 9.7 0.00 0.00 0.00 73 1018.3
20260501181518 21 92 3.2 11.3 0.00 0.00 0.00 72 1018.4
20260501181018 21 134 4.8 11.3 0.00 0.00 0.00 72 1018.4
20260501180517 22 93 4.8 14.5 0.00 0.00 0.00 71 1018.4
20260501180018 22 70 4.8 14.5 0.00 0.00 0.00 72 1018.3
20260501175517 22 80 4.8 9.7 0.00 0.00 0.00 71 1018.3
20260501175018 22 105 1.6 9.7 0.00 0.00 0.00 71 1018.3
20260501174529 22 100 4.8 14.5 0.00 0.00 0.00 70 1018.3
20260501174018 22 84 3.2 12.9 0.00 0.00 0.00 69 1018.3
20260501173518 22 108 4.8 12.9 0.00 0.00 0.00 69 1018.3
20260501173018 22 76 4.8 14.5 0.00 0.00 0.00 69 1018.3
20260501172530 23 338 3.2 14.5 0.00 0.00 0.00 68 1018.3
20260501172029 23 86 6.4 12.9 0.00 0.00 0.00 68 1018.3
20260501171518 23 56 3.2 17.7 0.00 0.00 0.00 68 1018.3
20260501171018 23 79 3.2 17.7 0.00 0.00 0.00 67 1018.3
20260501170517 23 81 4.8 16.1 0.00 0.00 0.00 67 1018.3
20260501170029 23 124 3.2 14.5 0.00 0.00 0.00 67 1018.3
20260501165517 23 91 4.8 14.5 0.00 0.00 0.00 66 1018.3
20260501165018 23 92 4.8 12.9 0.00 0.00 0.00 67 1018.4
20260501164518 23 78 4.8 16.1 0.00 0.00 0.00 67 1018.4
20260501164018 23 92 6.4 16.1 0.00 0.00 0.00 66 1018.5
20260501163517 23 109 6.4 14.5 0.00 0.00 0.00 66 1018.5
20260501163017 23 123 3.2 16.1 0.00 0.00 0.00 66 1018.4
20260501162528 23 124 8.0 16.1 0.00 0.00 0.00 64 1018.5
20260501162017 23 86 4.8 17.7 0.00 0.00 0.00 66 1018.5
20260501161518 23 76 11.3 17.7 0.00 0.00 0.00 64 1018.5
20260501161017 23 190 6.4 16.1 0.00 0.00 0.00 65 1018.5
20260501160518 23 81 6.4 16.1 0.00 0.00 0.00 64 1018.6
20260501160017 24 86 4.8 16.1 0.00 0.00 0.00 64 1018.6
20260501155517 24 109 3.2 16.1 0.00 0.00 0.00 64 1018.6
20260501154517 24 106 6.4 11.3 0.00 0.00 0.00 62 1018.7
20260501154017 24 86 6.4 12.9 0.00 0.00 0.00 62 1018.9
20260501153516 24 141 6.4 12.9 0.00 0.00 0.00 61 1018.8
20260501153017 25 94 4.8 12.9 0.00 0.00 0.00 62 1018.8
20260501152517 25 118 6.4 12.9 0.00 0.00 0.00 62 1018.8
20260501152017 25 100 8.0 12.9 0.00 0.00 0.00 61 1018.8
20260501151530 25 101 4.8 11.3 0.00 0.00 0.00 63 1018.8
20260501151018 25 111 3.2 12.9 0.00 0.00 0.00 62 1018.8
20260501150518 24 114 6.4 12.9 0.00 0.00 0.00 62 1018.9
20260501150018 24 93 4.8 11.3 0.00 0.00 0.00 62 1018.9
20260501145517 24 108 4.8 14.5 0.00 0.00 0.00 63 1018.9
20260501145028 24 103 6.4 11.3 0.00 0.00 0.00 64 1018.9
20260501144529 24 62 3.2 12.9 0.00 0.00 0.00 63 1018.9
20260501144017 23 77 6.4 12.9 0.00 0.00 0.00 63 1019.0
20260501143518 24 118 4.8 12.9 0.00 0.00 0.00 63 1018.9
20260501143028 24 60 8.0 14.5 0.00 0.00 0.00 64 1019.1